Location: ??????? ?????
(55.0333°N, 39.2878°E)
Time: 18:18:47
(UTC+00:00)

Daily predictions for brighter satellites

Satellite Brightness Start Highest point End
(mag) Time Altitude Azimuth Time Altitude Azimuth Time Altitude Azimuth
RESURS DK-1 2.9 18:55:16 10° NW 18:59:15 51° WSW 19:03:11 10° SSE
SL-14 R/B 3.5 18:55:44 10° S 18:59:25 51° E 19:03:07 10° NNE
Okean O Rocket 4.4 18:59:19 10° WSW 19:00:55 12° W 19:02:30 10° WNW
USA 281 3.5 18:56:11 10° SE 19:02:41 65° NE 19:09:13 10° NNW
Cosmos 1850 Rocket 4.4 18:58:20 10° S 19:03:19 45° ESE 19:08:16 10° NE
Okean 1-7 4.3 19:00:50 10° SE 19:04:23 25° E 19:07:57 10° NNE
Cosmos 2237 Rocket 4.0 19:00:14 10° NNW 19:05:01 27° NNE 19:09:47 10° E
Cosmos 2322 4.5 19:00:09 10° NNW 19:05:41 48° NE 19:11:10 10° ESE
SPOT 3 Rocket 4.1 19:01:42 10° S 19:06:45 56° W 19:11:52 10° NNW
Cosmos 1346 Rocket 2.8 19:03:12 10° NNW 19:07:07 85° WSW 19:10:58 10° S
Terra 2.9 19:03:04 10° SSW 19:07:30 41° W 19:11:59 10° NNW
OPS 8737 4.0 19:05:42 10° NW 19:08:40 90° NE 19:11:41 10° SE
Timation 1 Rocket 4.5 19:03:12 10° SSW 19:08:59 56° ESE 19:14:49 10° NE
Cosmos 2315 Rocket 4.2 19:03:28 10° NNW 19:09:51 79° W 19:16:14 10° S
Cosmos 2333 4.3 19:05:56 10° NW 19:11:45 90° SW 19:17:32 10° SSE
BREEZE-M DEB (TANK) 4.3 19:10:02 10° SW 19:14:30 49° SSE 19:31:11 10° E
Genesis I 4.4 19:17:46 10° WSW 19:21:10 42° NNW 19:24:37 10° NE
Cosmos 1758 3.9 19:17:32 10° NNW 19:21:20 51° W 19:25:08 10° S
Cosmos 1741 Rocket 4.1 19:17:13 10° S 19:22:23 60° ESE 19:27:39 10° NNE
ALOS 2 4.3 19:19:09 10° ESE 19:22:39 24° ENE 19:26:12 10° N
Cosmos 1242 Rocket 4.2 19:21:27 10° ESE 19:22:42 12° E 19:23:58 10° ENE
Cosmos 2322 Rocket 2.9 19:19:31 10° NW 19:24:58 49° WSW 19:30:24 10° S
COSMOS 2406 4.3 19:19:57 10° WSW 19:25:33 51° NW 19:31:10 10° NNE
Cosmos 968 Rocket 3.8 19:20:58 10° S 19:25:54 48° ESE 19:30:54 10° NE
Cosmos 1814 Rocket 4.1 19:21:33 10° NNW 19:26:52 81° WSW 19:32:10 10° SSE
USA 234 3.2 19:27:14 10° ENE 19:33:49 72° SSE 19:40:21 10° WSW
Cosmos 1356 Rocket 3.5 19:31:40 10° SSW 19:35:52 84° WNW 19:40:07 10° NNE
Kosmos-1783 4.1 19:34:02 10° WNW 19:37:13 70° SW 19:43:42 10° SE
Meteor 1-21 4.3 19:32:17 10° S 19:38:05 84° E 19:43:57 10° NNE
Cosmos 1703 Rocket 4.5 19:34:35 11° SSE 19:38:30 35° E 19:42:34 10° NNE
Cosmos 1862 Rocket 3.6 19:35:17 10° S 19:39:40 90° N 19:44:09 10° NNE
COSMOS 2428 3.0 19:40:16 10° NNW 19:45:57 68° NE 19:51:38 10° SE
Okean 2 3.5 19:43:37 11° S 19:47:22 55° E 19:51:19 10° NNE
Cosmos 2219 Rocket 2.4 19:46:55 10° NW 19:52:34 67° WSW 19:57:45 12° SSE
Cosmos 1455 1.9 19:49:18 10° NNW 19:52:49 89° W 19:55:51 13° S
Cosmos 1400 Rocket 4.4 19:50:00 10° SW 19:53:33 33° WNW 19:57:05 10° N
SL-4 R/B 2.1 19:51:10 10° W 19:55:01 52° S 19:59:06 10° ESE
Landsat 5 4.0 19:52:23 10° N 19:56:16 55° WNW 20:00:14 10° SSW
Cosmos 1707 Rocket 4.3 19:56:14 10° SSW 20:00:35 52° WNW 20:04:57 10° N
Orbus 7S? 3.2 19:58:10 10° W 20:01:45 63° N 20:04:24 10° ENE
ARIANE 5 R/B 2.8 20:01:59 13° S 20:05:51 68° WSW 20:10:11 10° NNW
ATLAS CENTAUR R/B 0.9 20:02:28 10° SW 20:05:57 66° SE 20:09:35 10° NE
Cosmos 1745 Rocket 4.4 20:00:45 12° SSE 20:06:25 52° E 20:12:34 10° NNE
SJ 16-02 1.3 20:03:19 10° SSW 20:07:38 79° ESE 20:11:59 10° NNE
Cosmos 1315 Rocket 2.8 20:04:39 11° S 20:08:31 84° ESE 20:12:33 10° NNE
Cosmos 1953 2.6 20:05:18 10° NNW 20:09:05 56° W 20:12:24 13° S
Okean 3 4.0 20:06:19 10° SSW 20:10:24 57° WNW 20:14:33 10° N
Nadezhda 1 Rocket 4.1 20:04:56 10° N 20:11:20 84° E 20:16:57 13° SSE
Meteor 1-4 Rocket 2.5 20:09:48 10° SSW 20:12:44 58° WNW 20:15:45 10° N
SL-27 R/B 2.8 20:11:28 10° SW 20:14:09 46° WNW 20:16:54 10° NNE
Aureole 3 4.3 20:10:26 10° SSW 20:14:21 55° WNW 20:19:17 10° N
Cosmos 2360 Rocket 3.6 20:11:02 10° NW 20:15:49 28° WSW 20:20:33 10° SSW
ATLAS 2AS CENTAUR R/B 3.6 20:12:49 10° WNW 20:18:48 33° WSW 20:24:07 12° S
GP-B 3.2 20:18:46 10° N 20:23:11 73° W 20:27:09 13° S
SL-16 R/B 4.4 20:21:28 10° WNW 20:24:09 14° W 20:26:50 10° SW
Cosmos 2333 Rocket 3.6 20:19:26 10° NW 20:24:12 27° WSW 20:28:57 10° SSW
H-2A R/B 2.6 20:23:15 15° S 20:26:48 71° WSW 20:31:05 10° NNW
Cosmos 1908 Rocket 4.4 20:26:08 10° NNW 20:30:17 43° W 20:34:00 12° SSW
Cosmos 1782 Rocket 3.6 20:28:36 10° NNW 20:32:56 71° W 20:36:24 15° S
SL-16 R/B 3.7 20:36:02 10° NNW 20:41:16 35° NE 20:46:29 10° ESE
Okean 1-7 3.9 20:37:17 10° SSW 20:41:28 46° WNW 20:45:40 10° N
Cosmos 1825 4.3 20:40:55 10° ESE 20:42:33 13° E 20:44:09 10° NE
Cosmos 1833 4.5 20:37:23 10° SW 20:43:00 71° NW 20:48:40 10° NNE
USA 129 2.9 20:44:52 10° NNE 20:45:38 16° NE 20:45:38 16° NE
USA 281 4.1 20:42:02 12° S 20:47:34 37° WSW 20:53:38 10° NW
Cosmos 2322 4.3 20:44:30 10° NW 20:49:53 45° WSW 20:54:15 15° S
Cosmos 2237 Rocket 2.3 20:44:14 10° NNW 20:49:57 80° NE 20:55:28 11° SE
BlueWalker 3 3.3 20:50:10 18° SSE 20:51:14 20° SE 20:54:03 10° E
Cosmos 2151 Rocket 4.3 20:46:58 10° N 20:51:15 46° ENE 20:55:00 13° SE
Meteor 1-24 Rocket 4.2 20:47:51 15° SSE 20:52:30 49° E 20:57:55 10° NNE
Cosmos 1408 2.0 20:50:38 20° S 20:52:33 77° ESE 20:55:34 10° NNE
Cosmos 405 Rocket 3.1 20:49:02 10° N 20:52:44 55° ENE 20:55:40 15° SSE
Cosmos 1300 Rocket 3.9 20:49:26 10° NNW 20:53:38 54° W 20:56:57 16° S
Cosmos 1242 Rocket 2.9 20:52:09 13° SW 20:54:25 41° WNW 20:57:05 10° N
H-2A R/B 3.2 20:51:50 10° NNE 20:55:41 31° E 20:58:34 15° SSE
EXPRESS MD2 3.7 20:56:04 10° WSW 20:56:56 17° SW 20:56:56 17° SW
Okean 2 Rocket 3.7 20:54:01 10° N 20:58:22 50° ENE 21:02:11 13° SSE
ALOS 2 2.9 20:55:20 16° S 20:58:42 59° WSW 21:03:04 10° NNW
CZ-4C R/B 3.0 20:57:21 16° SSE 21:00:15 29° ESE 21:05:07 10° ENE
Cosmos 2227 Rocket 3.9 20:56:48 11° SE 21:00:33 20° E 21:04:32 10° NE
Cosmos 1980 3.7 20:57:06 10° NW 21:02:48 83° WSW 21:07:57 13° SSE
Cosmos 371 Rocket 3.8 20:59:56 16° S 21:03:26 46° ESE 21:08:03 10° NE
Cosmos 1709 Rocket 4.1 21:00:29 14° S 21:06:05 88° E 21:12:29 10° NNE
NOSS 0 Rocket 4.2 21:03:39 10° NW 21:09:44 55° WSW 21:14:46 15° S
Cosmos 1703 3.1 21:10:09 18° S 21:12:46 79° E 21:16:29 10° NNE
Cosmos 1674 Rocket 4.4 21:12:35 15° SSE 21:15:47 39° E 21:19:51 10° NNE
USA 234 3.5 21:10:24 10° ENE 21:16:57 78° N 21:23:30 10° W
Cosmos 1378 Rocket 4.1 21:14:45 16° SSE 21:17:56 48° E 21:22:11 10° NNE
Cosmos 2221 Rocket 4.5 21:15:27 15° SSE 21:18:46 40° E 21:22:56 10° NNE
Meteor 2-5 Rocket 3.9 21:15:20 15° S 21:20:15 76° E 21:26:06 10° NNE
Cosmos 2297 Rocket 2.7 21:16:08 16° S 21:20:21 44° ESE 21:25:42 10° NE
Sich 1 Rocket 3.6 21:15:59 10° N 21:20:26 76° ENE 21:23:55 16° SSE
GEOS 3 Rocket 4.5 21:17:06 10° ENE 21:21:45 33° ESE 21:25:10 16° S
Cosmos 2242 Rocket 3.9 21:20:05 14° SSW 21:23:54 66° WNW 21:28:29 10° N
Cosmos 773 Rocket 4.3 21:21:34 10° NW 21:26:34 52° WSW 21:30:28 16° S
BREEZE-M DEB (TANK) 3.4 21:18:20 10° W 21:27:32 44° SSW 21:30:41 10° SE
CENTAUR R/B 3.9 21:25:39 12° SSE 21:29:30 22° ESE 21:34:35 10° ENE
COSMOS 2428 3.8 21:24:58 10° NW 21:29:50 30° WSW 21:33:47 14° SSW
SL-4 R/B 2.8 21:29:46 10° W 21:33:24 31° SSW 21:37:12 10° SE
Cosmos 2098 Rocket 4.3 21:27:55 10° NNW 21:34:24 65° W 21:39:49 15° S
COSMOS 2455 2.9 21:29:10 13° SSW 21:34:33 66° SE 21:40:33 10° NE
Cosmos 1892 3.0 21:32:49 18° SSE 21:35:10 48° E 21:38:35 10° NNE
Cosmos 2219 Rocket 4.2 21:32:33 10° WNW 21:35:28 14° W 21:38:24 10° SW
Cosmos 1538 Rocket 4.4 21:31:54 10° NNW 21:37:04 65° ENE 21:42:16 10° SE
Cosmos 1503 Rocket 4.1 21:35:27 16° SSW 21:39:47 69° ESE 21:45:04 10° NNE
NOSS 8 (F) 4.2 21:37:17 13° SW 21:40:25 69° SE 21:43:23 10° NE
Cosmos 1777 Rocket 4.2 21:38:28 16° S 21:42:40 62° ESE 21:47:53 10° NNE
ATLAS CENTAUR R/B 3.1 21:40:41 10° W 21:43:52 30° NNW 21:47:12 10° NE
GENESIS II 4.1 21:41:29 10° SW 21:45:08 76° NW 21:48:48 10° NE
SJ 16-02 3.6 21:43:13 10° W 21:46:31 21° NW 21:49:50 10° N
PSLV R/B 3.9 21:47:46 10° N 21:52:00 60° WNW 21:55:30 14° SSW
Cosmos 332 Rocket 4.2 21:52:44 16° S 21:56:29 52° ESE 22:01:14 10° NE
Cosmos 2263 Rocket 3.9 21:52:30 10° SSE 21:56:33 21° ESE 22:00:36 10° NE
Cosmos 304 Rocket 3.8 21:52:46 14° SSW 21:56:53 83° WNW 22:01:41 10° NNE
Cosmos 2181 Rocket 4.4 21:53:41 10° NNW 21:59:42 52° W 22:04:45 14° SSW
Resurs 1-4 Rocket 4.3 21:57:11 10° NE 22:00:19 16° E 22:03:25 10° ESE
Okean 1 Rocket 3.1 21:58:14 10° NNW 22:02:33 68° W 22:06:00 16° S
Cosmos 1486 Rocket 4.5 22:01:47 10° SW 22:06:54 57° WNW 22:12:04 10° NNE
Helios 1A Rocket 2.8 22:11:17 12° SSE 22:14:50 77° ENE 22:18:39 10° NNW
Cosmos 1825 2.1 22:13:44 17° SSW 22:16:15 64° WNW 22:19:40 10° N
Cosmos 2074 Rocket 4.1 22:14:24 14° SSW 22:19:50 78° WNW 22:26:06 10° N
Cosmos 1354 Rocket 4.1 22:15:41 13° SSW 22:20:28 81° WNW 22:25:49 10° NNE
Cosmos 1606 3.8 22:19:09 10° N 22:22:31 37° ENE 22:25:52 10° SE
SL-16 R/B 2.2 22:20:09 10° NW 22:25:50 68° WSW 22:31:28 10° SSE
BREEZE-M DEB (TANK) 2.3 22:25:42 10° W 22:27:27 21° SSW 22:27:46 20° S
Cosmos 2228 4.5 22:24:36 10° N 22:28:37 35° ENE 22:32:35 10° SE
BlueWalker 3 2.0 22:25:13 10° WSW 22:28:52 52° SSE 22:32:31 10° E
H-2A R/B 3.0 22:27:26 10° N 22:31:29 40° WNW 22:35:22 10° SW
Cosmos 1975 Rocket 3.6 22:28:30 12° S 22:32:25 51° E 22:36:42 10° NNE
Cosmos 2237 Rocket 3.5 22:28:59 10° NW 22:33:26 24° WSW 22:37:15 12° SSW
SL-19 R/B 3.8 22:36:44 10° NNE 22:39:56 66° ESE 22:42:13 15° S
Cosmos 1455 Rocket 3.2 22:36:48 10° NNW 22:41:13 64° W 22:45:15 12° S
Cosmos 1943 3.6 22:36:24 10° NNW 22:42:02 67° NE 22:47:37 10° SE
Cosmos 1328 4.1 22:39:39 14° SSW 22:42:53 56° WNW 22:46:44 10° N
Cosmos 1818 3.6 22:37:44 10° NW 22:43:15 81° SW 22:48:43 10° SE
Cosmos 2227 Rocket 2.2 22:38:36 12° SSW 22:43:51 87° ESE 22:49:33 10° NE
Orbus 7S? 2.7 22:42:21 10° WNW 22:44:58 52° SSW 22:48:18 10° SE
Meteor 1-21 Rocket 4.3 22:42:07 12° SSW 22:47:28 90° E 22:53:11 10° NNE
CZ-4C R/B 2.3 22:43:09 10° WSW 22:48:02 75° NW 22:54:21 10° NE
Cosmos 1680 Rocket 3.6 22:42:51 10° NNW 22:48:06 80° ENE 22:53:19 10° SSE
BREEZE-M DEB (TANK) 4.5 22:45:59 10° WSW 22:49:22 50° SSE 22:59:23 10° E
Cosmos 1869 3.3 22:45:51 10° N 22:49:34 72° ENE 22:53:15 10° SSE
Cosmos 2112 Rocket 4.3 22:44:29 10° NNW 22:49:42 73° ENE 22:54:52 10° SE
NOSS 3-3 (A) 4.5 22:45:58 10° NW 22:53:07 78° SW 23:01:33 10° SE
MOZ.5/SAFIR/RUBIN 5/SL-8 3.8 22:49:31 10° S 22:54:09 72° WSW 22:58:49 10° NNW
CZ-2C R/B 3.0 22:49:46 10° SSE 22:55:01 70° ENE 23:00:25 10° NNW
Cosmos 2084 Rocket 3.3 22:51:58 10° SW 22:56:10 80° SE 23:00:16 10° NE
CZ-2D R/B 3.3 22:52:09 10° NNE 22:57:09 37° E 23:02:02 10° SSE
IDEFIX/ARIANE 42P 3.3 22:52:34 10° NNE 22:57:41 49° E 23:02:45 10° S
CZ-2C R/B 4.5 22:53:19 10° NNE 22:58:21 34° E 23:03:07 10° SSE
Cosmos 2218 Rocket 4.4 22:53:21 10° S 22:59:28 61° E 23:05:34 10° NNE
USA 234 3.4 22:53:21 10° E 22:59:56 84° NNE 23:06:30 10° WNW
GEOS 3 Rocket 3.8 22:54:56 10° NE 23:00:08 75° NW 23:05:16 10° WSW
Cosmos 2297 Rocket 3.0 22:58:57 10° WSW 23:04:25 48° NW 23:09:55 10° NNE
Cosmos 2219 3.3 22:59:15 11° SSW 23:04:36 75° ESE 23:10:14 10° NE
Cosmos 1025 Rocket 3.6 23:01:49 11° SW 23:05:47 47° WNW 23:09:59 10° N
Cosmos 2366 rocket 4.2 23:02:02 10° S 23:08:17 72° E 23:14:31 10° NNE
NPP 4.1 23:05:06 10° NNE 23:10:27 59° ESE 23:15:46 10° S
Cosmos 1607 4.5 23:04:12 10° NW 23:10:40 68° NE 23:17:00 10° ESE
SL-4 R/B 4.0 23:10:02 10° WSW 23:11:19 11° SW 23:12:04 11° SSW
Meteor 2-1 Rocket 4.5 23:05:53 10° NNW 23:11:44 62° W 23:17:29 10° S
Cosmos 990 Rocket 4.2 23:08:39 10° SW 23:13:46 67° WNW 23:18:54 10° NNE
NOSS 3 (A) 4.2 23:12:25 11° WSW 23:13:50 38° NW 23:15:28 10° NE
CENTAUR R/B 2.7 23:12:56 10° SW 23:18:54 79° SE 23:26:25 10° NE
ALOS 4.2 23:16:47 10° NE 23:20:31 24° E 23:24:15 10° SE
COSMOS 2455 3.9 23:15:04 10° WSW 23:20:49 44° NNW 23:26:37 10° NE
Aureole 1 Rocket 2.9 23:18:43 11° SSW 23:22:16 81° WNW 23:26:56 10° NNE
ATLAS CENTAUR R/B 4.0 23:19:49 10° NW 23:22:31 19° N 23:25:19 10° NE
SL-16 R/B 3.0 23:17:58 10° SSE 23:24:10 67° ENE 23:30:21 10° NNW
ADEOS II 2.9 23:25:54 10° NNE 23:30:57 46° E 23:36:00 10° S
COBE Rocket 4.2 23:28:28 10° N 23:33:35 70° WNW 23:38:43 10° SSW
Cosmos 292 Rocket 3.9 23:29:23 10° SW 23:34:09 72° WNW 23:38:59 10° NNE
Meteor 1-27 4.3 23:32:08 10° NNW 23:38:00 82° W 23:43:49 10° S
Cosmos 2263 Rocket 2.2 23:34:11 10° SSW 23:39:47 89° NW 23:45:24 10° NNE
SL-8 Rocket 4.1 23:34:31 10° SSW 23:40:39 67° WNW 23:46:52 10° N
Resurs 1-4 Rocket 2.3 23:35:41 10° NNE 23:40:59 78° ESE 23:46:17 10° SSW
MSX 3.9 23:35:14 10° NNE 23:41:01 85° ESE 23:46:46 10° SSW
Cosmos 494 Rocket 4.0 23:41:36 10° NNW 23:46:52 87° WSW 23:52:07 10° SSE
Cosmos 372 Rocket 4.1 23:44:50 10° SSW 23:50:05 78° WNW 23:55:21 10° NNE
Cosmos 1727 Rocket 4.1 23:45:27 10° NNW 23:51:46 73° W 23:58:05 10° S
ASTEX 1 3.6 23:47:05 10° SSE 23:51:56 74° E 23:56:49 10° N
